Location: Holcomb Observatory
(44.4922°N, 73.1654°W)
Time: 21:49:30
(UTC-04:00)

Cosmos 2360 Rocket - Visible Passes

Search period start: 25 October 2014 00:00
Search period end: 03 November 2014 23:00
Orbit: 833 x 847 km, 71.0° (Epoch: 25 October)

Date Brightness Start Highest point End Pass type
(mag) Time Alt. Az. Time Alt. Az. Time Alt. Az.
25 Oct 2.9 18:14:01 10° SW 18:19:36 58° WNW 18:25:13 10° NNE visible
25 Oct 4.9 20:02:33 10° WNW 20:04:54 13° NW 20:07:15 10° NNW visible
26 Oct 4.8 19:46:39 10° WNW 19:49:14 13° NW 19:51:50 10° NNW visible
27 Oct 4.8 19:30:46 10° WNW 19:33:35 14° NW 19:36:23 10° N visible
28 Oct 4.7 19:14:55 10° WNW 19:17:55 14° NW 19:20:56 10° N visible
29 Oct 4.7 18:59:04 10° WNW 19:02:16 15° NW 19:05:28 10° N visible
30 Oct 4.6 18:43:15 10° W 18:46:37 16° NW 18:49:59 10° N visible
31 Oct 4.6 18:27:26 10° W 18:30:57 17° NW 18:34:30 10° N visible
01 Nov 4.5 18:11:38 10° W 18:15:19 17° NW 18:19:00 10° N visible
